Regional Weather Roundup
Issued by NWS Little Rock, AR

Home | Current Version | Previous Version | Text Only | Print | Product List | Glossary Off
Versions: 1 2 3 4 5 6 7 8 9 10 11 12 13 14 15 16 17 18 19 20 21 22 23 24 25 26 27 28 29 30 31 32 33 34 35 36 37 38 39 40 41 42 43 44 45 46 47 48 49 50

527
ASUS44 KLZK 282305
RWRLZK

WEATHER ROUNDUP FOR ARKANSAS
NATIONAL WEATHER SERVICE LITTLE ROCK AR
600 PM CDT FRI APR 28 2017

NOTE: "FAIR" INDICATES FEW OR NO CLOUDS BELOW 12,000 FEET WITH NO
SIGNIFICANT WEATHER AND/OR OBSTRUCTIONS TO VISIBILITY.

ARZ001-003-010-029-290000-
NORTHWEST ARKANSAS

CITY           SKY/WX    TMP DP  RH WIND       PRES   REMARKS
FAYETTEVILLE   CLOUDY    66  64  93 SE8       29.71S
FORT SMITH     CLOUDY    73  64  73 NE9       29.67R
HARRISON       CLOUDY    67  63  87 SE3       29.75R
BENTONVILLE    PTSUNNY   66  61  82 CALM      29.73R
ROGERS         LGT RAIN  66  62  87 SE6       29.73S
SILOAM SPGS    CLOUDY    68  61  77 CALM      29.71R
HIGHFILL       CLOUDY    68  63  84 S3        29.71R
SPRINGDALE     CLOUDY    66  64  94 SE6       29.73S
$$

ARZ004-005-016-290000-
NORTH CENTRAL ARKANSAS

CITY           SKY/WX    TMP DP  RH WIND       PRES   REMARKS
BATESVILLE     CLOUDY    73  70  88 CALM      29.74S
FLIPPIN        CLOUDY   N/A N/A N/A NE6       29.71S
MTN HOME       CLOUDY    65  62  90 CALM      29.74R
$$

ARZ040-041-290000-
WEST CENTRAL ARKANSAS

CITY           SKY/WX    TMP DP  RH WIND       PRES   REMARKS
MENA           CLOUDY    81  77  89 SE3       29.68S HX  88
MOUNT IDA      CLOUDY    78  70  76 VRB5      29.66S
$$

ARZ009-017-025-026-028-290000-
NORTHEAST ARKANSAS

CITY           SKY/WX    TMP DP  RH WIND       PRES   REMARKS
JONESBORO      MOSUNNY   81  72  74 S10       29.73S HX  85
NEWPORT        PTSUNNY   80  73  79 MISG        N/A
WALNUT RIDGE   PTSUNNY   73  68  83 NW6       29.74S
BLYTHEVILLE    CLOUDY    82  74  76 S9        29.76S HX  88
$$

ARZ022-023-033-042-044-290000-
CENTRAL ARKANSAS

CITY           SKY/WX    TMP DP  RH WIND       PRES   REMARKS
LITTLE ROCK    PTSUNNY   82  74  76 SE8       29.70R HX  88
N LITTLE ROCK    N/A     82  73  72 S7        29.70S HX  88
JACKSONVILLE   CLOUDY    84  73  70 SE6       29.69S HX  90
CONWAY           N/A     77  72  83 N7        29.69S HAZE
SEARCY         MOSUNNY   82  75  79 S6        29.72S HX  89
HOT SPRINGS    MOSUNNY   83  73  72 SE6       29.68S HX  89
RUSSELLVILLE   MOSUNNY   74  68  81 E5        29.69F
CLINTON        CLOUDY    68  66  94 CALM      29.73S FOG
$$

ARZ036-290000-
EAST ARKANSAS

CITY           SKY/WX    TMP DP  RH WIND       PRES   REMARKS
WEST MEMPHIS   PTSUNNY   82  74  76 S10       29.75S HX  88
$$

ARZ050-053-066-070-073-290000-
SOUTHWEST ARKANSAS

CITY           SKY/WX    TMP DP  RH WIND       PRES   REMARKS
ARKADELPHIA    FAIR      85  74  69 MISG      29.67S HX  92
CAMDEN         SUNNY     86  70  58 S13G20    29.68S HX  90
TEXARKANA      MOSUNNY   84  73  69 S10       29.64S HX  90
EL DORADO      CLOUDY    84  73  69 SE8       29.70S HX  90
DE QUEEN       PTSUNNY   82  75  79 E5        29.61F HX  89
$$

ARZ056-057-069-290000-
SOUTHEAST ARKANSAS

CITY           SKY/WX    TMP DP  RH WIND       PRES   REMARKS
PINE BLUFF     CLOUDY    84  71  65 S13       29.71R HX  89
STUTTGART      CLOUDY    84  64  51 S14       29.73S HX  86
MONTICELLO     MOSUNNY   86  72  62 S10       29.73R HX  92

$$






USA.gov is the U.S. government's official web portal to all federal, state and local government web resources and services.